Simultaneous Nadir Overpasses (SNOs) Predictions

Prediction of SNOs between METOP-B and NOAA-19 Satellite Orbit:

Table of predicted SNOs for the next 14.0 days since TLE Epoch: 4/10/2015
Index Date (METOP-B) Time (METOP-B) Lat,Lon (METOP-B) SZA (METOP-B ) Date (NOAA-19) Time (NOAA-19) Lat,Lon (NOAA-19) SZA (NOAA-19 ) Distance(km) Time Diff (sec)
1 04/20/2015 07:43:25 -74.99,-118.26 116.53 04/20/2015 07:42:13 -74.98,-119.44 116.52 34.16 72
2 04/20/2015 08:34:09 74.76, 48.45 63.25 04/20/2015 08:33:05 74.76, 48.48 63.24 1.34 64
3 04/20/2015 09:24:52 -74.73,-144.32 116.80 04/20/2015 09:24:11 -74.75,-144.30 116.78 2.88 41
4 04/20/2015 10:15:31 74.74, 23.05 63.20 04/20/2015 10:15:07 74.72, 23.07 63.18 2.98 24
5 04/20/2015 11:06:14 -74.71,-169.71 116.85 04/20/2015 11:06:13 -74.72,-169.70 116.84 1.00 1
6 04/20/2015 11:56:53 74.72, -2.34 63.16 04/20/2015 11:57:10 74.73, -2.47 63.16 3.72 17
7 04/20/2015 12:47:36 -74.69, 164.89 116.89 04/20/2015 12:48:15 -74.68, 164.89 116.90 0.95 39
8 04/20/2015 13:38:16 74.66, -27.87 63.07 04/20/2015 13:39:12 74.69, -27.87 63.10 3.97 56
9 04/20/2015 14:29:02 -74.48, 138.98 117.12 04/20/2015 14:30:14 -74.50, 139.88 117.11 27.03 72




NCC Satellite Simultaneous Nadir Overpasses (SNOs) Prediction Service
